SL-8 DEB, 1591

Orbit data source: Space-Track

SL-8 DEB, 1591 is space debris in LEO originally from a launch on Sat, 18 Sep 1965 UTC launched from the Tyuratam Missile And Space Complex (TTMTR). Debris objects in space refer to the collection of defunct objects orbiting the Earth. Examples of debris include non-operational satellites, rocket bodies, and fragments generated from explosions, collisions, or faulty payload assembly.

Loading next visibility...
Identifier
1591, 1965-073H
Orbit
LEO
Country
Flag of CISCIS
Related business
Manufacturer
Unknown
Mission
Spacecraft
Bus & Motor
Unknown
Mass
Unknown
Launch date (UTC)
1965-09-18 (60 years ago)
Launch vehicle
Unknown
Launch site
Tyuratam Missile And Space Complex (TTMTR)
Object type
Payload
Rocket body
Debris
Shape & HBR
Unknown
Radar Cross Section
Small (<0.1 m²)

Expand to show TLE details & history
Last TLE update: 1 day ago

TLE from 1 day ago
0 SL-8 DEB
1 01591U 65073H   25242.04675178  .00000180  00000-0  18853-2 0  9996
2 01591  56.0560 204.6283 0156761 303.6370 129.8203 12.42927343712522
Epoch: 2025-08-30T01:07Z
TLE epoch observation values (Epoch: 2025-08-30T01:07:19.353Z)
Latitude
53.31819°
Longitude
-86.63006°
Altitude
1,581.364 km
Speed
7.047 km/s
True Right ascension
17h 54m 44s
True Declination
53° 10' 13"
Sunlit
Object was in daylight at epoch
Visualization orbit readout
Latitude
Unknown
Longitude
Unknown
Altitude
Unknown
Speed
Unknown
Apparent Right ascension
Unknown
Apparent Declination
Unknown
Sunlit
N/A
Visualization observer readout
Local Sidereal Time
20:19:20
Azimuth
Unknown
Elevation
Unknown
Doppler factor
Unknown
Orbital elements
Apogee altitude
1,617.447 km
Perigee altitude
1,370.637 km
Semi-major axis
7,872.179 km
Eccentricity
0.01568
Inclination
56.056°
RAAN
204.6283°
Arg. of periapsis
303.637°
True anomaly
131.18276°
Mean anomaly
129.8203°
Eccentric anomaly
130.50324°
Mean motion
3.10743 °/min
Orbital period
115.85 mins
BSTAR
0.0018853
Loading maneuver chart data...
Computing Atmospheric mass density...
Loading historical data...
Loading historical data...
Loading historical data...
Loading historical data...
Loading historical data...
Loading historical data...
Loading historical data...

Documentation

Showing up to 5 results
|